This is the latest recevied weather packets stored in our database for station/object SV9TNF-52. If no packets are shown the sender has not sent any weather packets the latest 10 day(s).
| Time | Temp. | Humidity | Pressure | Rain* | Wind** | Luminosity | Snow |
|---|---|---|---|---|---|---|---|
| 1788141155 | 22.78° C | 70% | 1020.7 hPa | 0 mm | 4.92 m/s, 213° | - | - |
| 1788140855 | 22.78° C | 70% | 1020.7 hPa | 0 mm | 4.92 m/s, 177° | - | - |
| 1788140555 | 22.78° C | 70% | 1020.7 hPa | 0 mm | 4.92 m/s, 187° | - | - |
| 1788140255 | 22.78° C | 70% | 1020.7 hPa | 0 mm | 5.81 m/s, 283° | - | - |
| 1788139955 | 22.78° C | 70% | 1021 hPa | 0 mm | 6.26 m/s, 215° | - | - |
| 1788139655 | 22.78° C | 70% | 1021 hPa | 0 mm | 4.02 m/s, 164° | - | - |
| 1788139354 | 22.78° C | 70% | 1020.7 hPa | 0 mm | 5.36 m/s, 180° | - | - |
| 1788139054 | 22.78° C | 71% | 1020.7 hPa | 0 mm | 4.92 m/s, 259° | - | - |
| 1788138754 | 22.78° C | 71% | 1020.7 hPa | 0 mm | 8.94 m/s, 228° | - | - |
| 1788138454 | 22.78° C | 72% | 1021 hPa | 0 mm | 4.92 m/s, 245° | - | - |
| 1788138154 | 22.78° C | 72% | 1021 hPa | 0 mm | 6.71 m/s, 222° | - | - |
| 1788137854 | 22.78° C | 72% | 1021 hPa | 0 mm | 5.81 m/s, 66° | - | - |
| 1788137554 | 22.78° C | 72% | 1021 hPa | 0 mm | 4.02 m/s, 171° | - | - |
| 1788137254 | 22.78° C | 72% | 1021 hPa | 0 mm | 4.02 m/s, 240° | - | - |
| 1788136954 | 22.78° C | 72% | 1021 hPa | 0 mm | 4.02 m/s, 275° | - | - |
| 1788136653 | 22.78° C | 72% | 1021 hPa | 0 mm | 4.02 m/s, 184° | - | - |
| 1788136353 | 22.78° C | 72% | 1021 hPa | 0 mm | 4.02 m/s, 224° | - | - |
| 1788136060 | 22.78° C | 72% | 1021 hPa | 0 mm | 7.15 m/s, 210° | - | - |
| 1788135753 | 22.78° C | 72% | 1021 hPa | 0 mm | 8.05 m/s, 200° | - | - |
| 1788135453 | 22.78° C | 72% | 1021 hPa | 0 mm | 6.71 m/s, 199° | - | - |
| 1788135153 | 22.78° C | 72% | 1021 hPa | 0 mm | 4.92 m/s, 180° | - | - |
| 1788134853 | 22.78° C | 72% | 1021 hPa | 0 mm | 2.68 m/s, 223° | - | - |
| 1788134553 | 22.78° C | 72% | 1021 hPa | 0 mm | 4.02 m/s, 239° | - | - |
| 1788134253 | 22.78° C | 72% | 1021 hPa | 0 mm | 4.92 m/s, 196° | - | - |
| 1788133953 | 22.78° C | 71% | 1021 hPa | 0 mm | 4.02 m/s, 201° | - | - |
* Rain latest hour (hover to see other rain measurements)
** Current wind speed in m/s (hover to see current wind gust speed)